Altus AFB, OK

5:07 PM CST on February 22, 2018 (GMT -0600)
Altus Air Force Base

Weather History for KLTS - March, 2012

Change the Weather History Date:

Wednesday, March 7, 2012

  Actual Average Record
Temperature  
Mean Temperature 66 °F -  
Max Temperature 80 °F 59 °F 84 °F (2006)
Min Temperature 53 °F 34 °F 21 °F (2008)
Cooling Degree Days 2    
Growing Degree Days 16 (Base 50)    
Moisture  
Dew Point 55 °F    
Average Humidity 71    
Maximum Humidity 99    
Minimum Humidity 40    
Precipitation  
Precipitation 0.00 in - - ()
Sea Level Pressure  
Sea Level Pressure 29.78 in    
Wind  
Wind Speed 17 mph (SSE)    
Max Wind Speed 28 mph    
Max Gust Speed 32 mph    
Visibility 10 miles    
Events      
Averages and records for this station are not official NWS values.
T = Trace of Precipitation, MM = Missing Value Source: NWS Daily Summary

Daily Weather History Graph

Daily Weather History Graph

Search for Another Location

Airport or City:

Trip Planner

Search our weather history database for the weather conditions in past years. The results will help you decide how hot, cold, wet, or windy it might be!

Date:

Astronomy

Mar. 07, 2012 Rise Set
Actual Time 6:57 AM CST 6:38 PM CST
Civil Twilight 6:32 AM CST 7:03 PM CST
Nautical Twilight 6:03 AM CST 7:33 PM CST
Astronomical Twilight 5:34 AM CST 8:02 PM CST
Moon 6:15 PM CST (3/7) 6:08 AM CST (3/7)
Length of Visible Light 12h 31m
Length of Day
11h 40m
Waxing Gibbous, 99% of the Moon is Illuminated
Mar 7
Waxing Gibbous
Mar 8
Full
Mar 14
Last Quarter
Mar 22
New
Mar 30
First Quarter

Hourly Weather History & Observations

Time (CST) Temp. Heat Index Dew Point Humidity Pressure Visibility Wind Dir Wind Speed Gust Speed Precip Events Conditions
12:55 AM 57.7 °F - 50.5 °F 77% 29.79 in 10.0 mi SSE 15.0 mph - N/A   Clear
1:55 AM 57.6 °F - 51.1 °F 79% 29.80 in 10.0 mi SSE 15.0 mph - N/A   Clear
2:55 AM 54.9 °F - 50.9 °F 86% 29.79 in 10.0 mi ESE 11.5 mph - N/A   Clear
3:07 AM 53.6 °F - 50.0 °F 88% 29.79 in 10.0 mi ESE 11.5 mph - N/A   Mostly Cloudy
3:15 AM 53.6 °F - 50.0 °F 88% 29.78 in 10.0 mi SE 11.5 mph - N/A   Scattered Clouds
3:55 AM 54.7 °F - 51.6 °F 89% 29.78 in 10.0 mi SE 13.8 mph - N/A   Clear
4:05 AM 55.4 °F - 51.8 °F 88% 29.78 in 10.0 mi SE 13.8 mph - N/A   Mostly Cloudy
4:55 AM 58.5 °F - 53.1 °F 82% 29.78 in 10.0 mi SE 18.4 mph - N/A   Overcast
5:10 AM 59.0 °F - 53.6 °F 82% 29.78 in 10.0 mi SE 18.4 mph - N/A   Overcast
5:35 AM 59.0 °F - 53.6 °F 82% 29.78 in 10.0 mi SE 16.1 mph - N/A   Overcast
5:55 AM 58.6 °F - 53.6 °F 83% 29.79 in 10.0 mi SSE 16.1 mph - N/A   Overcast
6:55 AM 58.8 °F - 54.1 °F 84% 29.80 in 10.0 mi SE 15.0 mph - N/A   Overcast
7:55 AM 59.9 °F - 54.5 °F 82% 29.81 in 10.0 mi SE 15.0 mph - N/A   Overcast
8:55 AM 61.2 °F - 54.9 °F 80% 29.84 in 10.0 mi SE 15.0 mph - N/A   Overcast
9:55 AM 64.0 °F - 55.8 °F 74% 29.83 in 10.0 mi SE 15.0 mph - N/A   Overcast
10:55 AM 67.8 °F - 56.1 °F 66% 29.82 in 10.0 mi South 21.9 mph 31.1 mph N/A   Overcast
10:57 AM 68.0 °F - 55.4 °F 64% 29.82 in 10.0 mi South 24.2 mph 31.1 mph N/A   Overcast
11:04 AM 69.8 °F - 57.2 °F 64% 29.82 in 10.0 mi South 20.7 mph 29.9 mph N/A   Overcast
11:10 AM 69.8 °F - 55.4 °F 60% 29.81 in 10.0 mi South 25.3 mph 32.2 mph N/A   Mostly Cloudy
11:55 AM 72.0 °F - 55.8 °F 57% 29.81 in 10.0 mi South 25.3 mph 29.9 mph N/A   Mostly Cloudy
12:09 PM 73.4 °F - 55.4 °F 53% 29.80 in 10.0 mi South 27.6 mph 31.1 mph N/A   Scattered Clouds
12:55 PM 76.5 °F - 55.4 °F 48% 29.78 in 10.0 mi SSW 19.6 mph 28.8 mph N/A   Partly Cloudy
1:55 PM 78.3 °F - 54.7 °F 44% 29.75 in 10.0 mi South 18.4 mph 27.6 mph N/A   Clear
2:55 PM 79.2 °F - 53.8 °F 41% 29.73 in 10.0 mi South 19.6 mph 26.5 mph N/A   Clear
3:55 PM 80.2 °F 80.1 °F 53.6 °F 40% 29.71 in 10.0 mi South 15.0 mph 25.3 mph N/A   Clear
4:55 PM 79.3 °F - 54.9 °F 43% 29.69 in 10.0 mi SSE 20.7 mph - N/A   Clear
5:55 PM 78.1 °F - 53.2 °F 42% 29.69 in 10.0 mi SSE 20.7 mph - N/A   Clear
6:55 PM 73.0 °F - 56.3 °F 56% 29.72 in 10.0 mi SE 19.6 mph - N/A   Clear
7:55 PM 70.5 °F - 59.2 °F 67% 29.75 in 10.0 mi SE 20.7 mph - N/A   Partly Cloudy
8:55 PM 68.0 °F - 59.9 °F 75% 29.78 in 10.0 mi SE 23.0 mph 32.2 mph N/A   Mostly Cloudy
9:55 PM 65.5 °F - 60.6 °F 84% 29.79 in 10.0 mi ESE 16.1 mph - N/A   Partly Cloudy
10:55 PM 63.3 °F - 61.3 °F 93% 29.81 in 10.0 mi SE 17.3 mph - N/A   Clear
11:55 PM 62.6 °F - 62.2 °F 99% 29.81 in 10.0 mi SE 18.4 mph 26.5 mph N/A   Clear